SR2CPA-13 Weather Reports


Display with metric or nautical units.
time (UTC)temp
F
wind
direction
speed
MPH
gust
MPH
rain 1hr
in
rain 24hr
in
rain mn
in
humidity
%
barometer
mb
20260502214032 58 265 1.0 1.0 0.00 0.00 0.00 58
20260502213032 59 263 1.0 2.0 0.00 0.00 0.00 57
20260502212012 59 262 1.0 1.0 0.00 0.00 0.00 57
20260502211012 59 272 1.0 1.0 0.00 0.00 0.00 56
20260502205952 60 263 1.0 2.0 0.00 0.00 0.00 55
20260502204952 60 254 1.0 2.0 0.00 0.00 0.00 54
20260502203952 60 263 1.0 2.0 0.00 0.00 0.00 54
20260502202932 60 248 1.0 1.0 0.00 0.00 0.00 54
20260502201932 60 0 0.0 0.0 0.00 0.00 0.00 54
20260502200932 60 256 0.0 0.0 0.00 0.00 0.00 52
20260502195932 60 247 0.0 1.0 0.00 0.00 0.00 52
20260502194932 59 0 0.0 0.0 0.00 0.00 0.00 54
20260502193912 59 259 0.0 0.0 0.00 0.00 0.00 55
20260502192912 60 0 0.0 0.0 0.00 0.00 0.00 52
20260502191912 62 259 0.0 0.0 0.00 0.00 0.00 47
20260502190912 64 265 0.0 1.0 0.00 0.00 0.00 45
20260502185852 64 260 1.0 2.0 0.00 0.00 0.00 45
20260502184832 64 270 0.0 1.0 0.00 0.00 0.00 45
20260502183832 66 241 1.0 1.0 0.00 0.00 0.00 42
20260502182812 67 242 1.0 2.0 0.00 0.00 0.00 41
20260502181812 68 252 3.0 2.0 0.00 0.00 0.00 38
20260502163632 75 243 4.0 7.0 0.00 0.00 0.00 31
20260502162612 76 263 6.0 8.0 0.00 0.00 0.00 29
20260502161612 76 260 5.0 8.0 0.00 0.00 0.00 31
20260502160612 77 272 5.0 7.0 0.00 0.00 0.00 31
20260502151512 78 235 2.0 4.0 0.00 0.00 0.00 33
20260502150512 78 218 5.0 5.0 0.00 0.00 0.00 29
20260502130351 78 250 7.0 7.0 0.00 0.00 0.00 30
20260502123311 78 259 3.0 4.0 0.00 0.00 0.00 29
20260502122252 77 259 5.0 9.0 0.00 0.00 0.00 30
20260502121251 77 263 5.0 8.0 0.00 0.00 0.00 30
20260502120232 77 231 4.0 4.0 0.00 0.00 0.00 35
20260502115231 76 242 4.0 6.0 0.00 0.00 0.00 29
20260502114211 78 181 4.0 7.0 0.00 0.00 0.00 29
20260502113211 76 234 5.0 8.0 0.00 0.00 0.00 29
20260502112151 77 272 9.0 11.0 0.00 0.00 0.00 30
20260502111151 77 291 5.0 8.0 0.00 0.00 0.00 29
20260502110151 75 211 5.0 3.0 0.00 0.00 0.00 26
20260502105151 76 251 3.0 4.0 0.00 0.00 0.00 28
20260502104151 75 243 2.0 2.0 0.00 0.00 0.00 27
20260502103131 75 252 3.0 6.0 0.00 0.00 0.00 31
20260502102131 75 264 5.0 5.0 0.00 0.00 0.00 32
20260502101111 75 257 3.0 5.0 0.00 0.00 0.00 33
20260502100111 73 245 5.0 8.0 0.00 0.00 0.00 31
20260502091031 73 274 3.0 4.0 0.00 0.00 0.00 29
20260502070911 67 270 1.0 2.0 0.00 0.00 0.00 39
20260502065851 65 265 1.0 1.0 0.00 0.00 0.00 40
20260502064831 64 249 2.0 3.0 0.00 0.00 0.00 41
20260502063831 63 263 1.0 3.0 0.00 0.00 0.00 44
20260502062811 63 265 0.0 1.0 0.00 0.00 0.00 51
20260502061811 62 233 0.0 1.0 0.00 0.00 0.00 52
20260502060811 61 256 0.0 0.0 0.00 0.00 0.00 49
20260502055751 60 0 0.0 0.0 0.00 0.00 0.00 55
20260502054731 58 301 0.0 1.0 0.00 0.00 0.00 57
20260502053731 57 271 0.0 1.0 0.00 0.00 0.00 64
20260502052731 56 332 0.0 0.0 0.00 0.00 0.00 68
20260502052511 56 0 0.0 0.0 0.00 0.00 0.00 71
20260502051511 56 0 0.0 0.0 0.00 0.00 0.00 78
20260502050511 51 266 0.0 0.0 0.00 0.00 0.00 95
20260502045511 48 264 1.0 1.0 0.00 0.00 0.00 99
20260502044511 47 263 0.0 0.0 0.00 0.00 0.00 99
20260502043511 46 268 0.0 1.0 0.00 0.00 0.00 99
20260502042451 46 280 1.0 1.0 0.00 0.00 0.00 99
20260502041451 44 269 0.0 1.0 0.00 0.00 0.00 99
20260502040431 43 270 1.0 1.0 0.00 0.00 0.00 99
20260502035611 42 0 0.0 0.0 0.00 0.00 0.00 99
20260502034611 41 0 0.0 0.0 0.00 0.00 0.00 99
20260502033551 40 0 0.0 0.0 0.00 0.00 0.00 99
20260502032551 39 0 0.0 0.0 0.00 0.00 0.00 99
20260502031551 40 270 1.0 1.0 0.00 0.00 0.00 99
20260502030551 39 0 0.0 0.0 0.00 0.00 0.00 99
20260502025531 40 0 0.0 0.0 0.00 0.00 0.00 99
20260502024511 39 0 0.0 0.0 0.00 0.00 0.00 99
20260502023511 39 0 0.0 0.0 0.00 0.00 0.00 99
20260502022511 39 0 0.0 0.0 0.00 0.00 0.00 99
20260502021511 39 0 0.0 0.0 0.00 0.00 0.00 99
20260502020511 40 0 0.0 0.0 0.00 0.00 0.00 99
20260502015511 40 0 0.0 0.0 0.00 0.00 0.00 99
20260502014511 40 0 0.0 0.0 0.00 0.00 0.00 99
20260502013511 41 0 0.0 0.0 0.00 0.00 0.00 99
20260502012451 41 0 0.0 0.0 0.00 0.00 0.00 99
20260502011451 42 0 0.0 0.0 0.00 0.00 0.00 99
20260502010451 41 0 0.0 0.0 0.00 0.00 0.00 99
20260502005431 41 0 0.0 0.0 0.00 0.00 0.00 99
20260502004431 42 0 0.0 0.0 0.00 0.00 0.00 99
20260502003411 41 0 0.0 0.0 0.00 0.00 0.00 99
20260502002410 41 0 0.0 0.0 0.00 0.00 0.00 99
20260502001411 42 0 0.0 0.0 0.00 0.00 0.00 99
20260502000351 44 0 0.0 0.0 0.00 0.00 0.00 95
20260501235350 45 0 0.0 0.0 0.00 0.00 0.00 85
20260501234350 46 0 0.0 0.0 0.00 0.00 0.00 82
20260501233330 47 0 0.0 0.0 0.00 0.00 0.00 77
20260501232330 47 319 0.0 1.0 0.00 0.00 0.00 80
20260501231310 46 0 0.0 0.0 0.00 0.00 0.00 83
20260501230310 46 0 0.0 0.0 0.00 0.00 0.00 79
20260501225310 46 0 0.0 0.0 0.00 0.00 0.00 78
20260501224250 47 0 0.0 0.0 0.00 0.00 0.00 75
20260501223250 46 0 0.0 0.0 0.00 0.00 0.00 79
20260501222230 47 0 0.0 0.0 0.00 0.00 0.00 74
20260501221230 48 0 0.0 0.0 0.00 0.00 0.00 70
20260501220210 49 0 0.0 0.0 0.00 0.00 0.00 68
20260501215210 50 0 0.0 0.0 0.00 0.00 0.00 65